Weather History for Whitefield, NH

Change the Weather History Date:

Friday, December 28, 2012

  Actual Average Record
Temperature  
Mean Temperature 22 °F -  
Max Temperature 24 °F 26 °F 54 °F (2008)
Min Temperature 21 °F 6 °F -9 °F (1999)
Degree Days  
Heating Degree Days 42    
Moisture  
Dew Point 18 °F    
Average Humidity 81    
Maximum Humidity 93    
Minimum Humidity 74    
Precipitation  
Precipitation 0.00 in - - ()
Sea Level Pressure  
Sea Level Pressure 29.90 in    
Wind  
Wind Speed 4 mph (West)    
Max Wind Speed 8 mph    
Max Gust Speed -    
Visibility 8 miles    
Events Snow    
Averages and records for this station are not official NWS values.
T = Trace of Precipitation, MM = Missing Value Source: NWS Daily Summary

Daily Weather History Graph

Daily Weather History Graph

Search for Another Location

Airport:

Trip Planner

Search our weather history database for the weather conditions in past years. The results will help you decide how hot, cold, wet, or windy it might be!

Date:

Astronomy

Dec. 28, 2012 Rise Set
Actual Time 7:21 AM EST 4:14 PM EST
Civil Twilight 6:48 AM EST 4:47 PM EST
Nautical Twilight 6:11 AM EST 5:24 PM EST
Astronomical Twilight 5:36 AM EST 5:59 PM EST
Moon 4:50 PM EST (12/28) 7:11 AM EST (12/28)
Length of Visible Light 9h 59m
Length of Day
8h 52m
Full, 100% of the Moon is Illuminated
Dec 28
Full
Jan 4
Last Quarter
Jan 11
New
Jan 18
First Quarter
Jan 26
Full

Hourly Weather History & Observations

Time (EST) Temp. Windchill Dew Point Humidity Pressure Visibility Wind Dir Wind Speed Gust Speed Precip Events Conditions
12:52 AM 21.9 °F 17.2 °F 17.1 °F 82% 29.71 in 10.0 mi NW 3.5 mph - N/A   Overcast
1:39 AM 21.2 °F 16.4 °F 17.6 °F 86% 29.69 in 10.0 mi Variable 3.5 mph - N/A   Overcast
1:52 AM 21.9 °F 15.7 °F 18.0 °F 85% 29.74 in 6.0 mi WNW 4.6 mph - N/A   Overcast
2:17 AM 21.2 °F 16.4 °F 19.4 °F 93% 29.71 in 4.0 mi West 3.5 mph - N/A   Overcast
2:52 AM 21.9 °F 13.4 °F 18.0 °F 85% 29.77 in 10.0 mi West 6.9 mph - N/A   Overcast
3:52 AM 21.9 °F 14.5 °F 18.0 °F 85% 29.80 in 10.0 mi West 5.8 mph - N/A   Overcast
4:52 AM 23.0 °F 17.0 °F 17.1 °F 78% 29.82 in 10.0 mi West 4.6 mph - 0.00 in Snow Light Snow
5:52 AM 23.0 °F 13.9 °F 17.1 °F 78% 29.86 in 10.0 mi West 8.1 mph - 0.00 in   Overcast
6:52 AM 21.9 °F 14.5 °F 17.1 °F 82% 29.88 in 10.0 mi West 5.8 mph - N/A   Overcast
7:52 AM 21.9 °F - 18.0 °F 85% 29.91 in 5.0 mi Calm Calm - N/A   Overcast
8:21 AM 21.2 °F 16.4 °F 17.6 °F 86% 29.87 in 2.0 mi SW 3.5 mph - 0.00 in Snow Light Snow
8:28 AM 21.2 °F - 17.6 °F 86% 29.87 in 1.5 mi Calm Calm - 0.00 in Snow Light Snow
8:36 AM 23.0 °F 18.4 °F 17.6 °F 80% 29.87 in 3.0 mi Variable 3.5 mph - 0.00 in   Haze
8:52 AM 23.0 °F 18.4 °F 17.1 °F 78% 29.94 in 10.0 mi Variable 3.5 mph - 0.00 in   Overcast
9:52 AM 23.0 °F 18.4 °F 18.0 °F 81% 29.95 in 2.5 mi Variable 3.5 mph - 0.00 in Snow Light Snow
10:37 AM 23.0 °F 18.4 °F 17.6 °F 80% 29.90 in 3.0 mi West 3.5 mph - 0.00 in   Haze
10:52 AM 23.0 °F 18.4 °F 17.1 °F 78% 29.95 in 7.0 mi WSW 3.5 mph - 0.00 in   Overcast
11:52 AM 23.0 °F 18.4 °F 18.0 °F 81% 29.95 in 4.0 mi West 3.5 mph - N/A   Haze
12:52 PM 24.1 °F 19.7 °F 18.0 °F 77% 29.94 in 4.0 mi West 3.5 mph - 0.00 in Snow Light Snow
1:52 PM 24.1 °F 16.0 °F 17.1 °F 75% 29.95 in 8.0 mi West 6.9 mph - 0.00 in   Overcast
2:52 PM 24.1 °F 19.7 °F 18.0 °F 77% 29.96 in 10.0 mi SW 3.5 mph - 0.00 in   Overcast
3:52 PM 24.1 °F - 19.0 °F 81% 29.97 in 10.0 mi Calm Calm - N/A   Overcast
4:52 PM 24.1 °F 16.0 °F 17.1 °F 75% 29.98 in 10.0 mi WSW 6.9 mph - N/A   Overcast
5:52 PM 23.0 °F 14.7 °F 16.0 °F 74% 30.00 in 10.0 mi West 6.9 mph - N/A   Overcast
6:52 PM 23.0 °F - 17.1 °F 78% 30.01 in 10.0 mi Calm Calm - N/A   Overcast
8:52 PM 23.0 °F - 18.0 °F 81% 30.02 in 10.0 mi Calm Calm - N/A   Overcast
9:52 PM 23.0 °F 18.4 °F 17.1 °F 78% 30.04 in 10.0 mi SSW 3.5 mph - N/A   Overcast
10:52 PM 23.0 °F - 17.1 °F 78% 30.03 in 10.0 mi Calm Calm - N/A   Overcast
11:52 PM 21.9 °F - 18.0 °F 85% 30.03 in 10.0 mi Calm Calm - N/A   Overcast